QTR15G VCBI-VRMM

Flight info

Callsign QTR15G
Flight time 1h 7m
Altitude 38000
Route LALUM1D TELIG M512 HOKEY HOKEY1A
Aircraft A20N/M-SDE2E3FGHIRWXY/LB1

Departure

Time 2026-04-27 12:19
Airport Bandaranaike International Colombo Airport (VCBI)

Arrival

Time 2026-04-27 13:26
Airport Velana International Airport (VRMM)
Time Latitude Longitude Altitude Speed Heading
2026-04-27 11:54 7.17747 79.88456 35 ft 0 kts 212°
2026-04-27 12:06 7.17748 79.88456 34 ft 0 kts 212°
2026-04-27 12:09 7.17751 79.88458 34 ft 2 kts 211°
2026-04-27 12:09 7.17765 79.88467 34 ft 2 kts 212°
2026-04-27 12:09 7.17779 79.88476 34 ft 2 kts 213°
2026-04-27 12:10 7.17793 79.88485 34 ft 2 kts 214°
2026-04-27 12:10 7.17807 79.88494 32 ft 3 kts 232°
2026-04-27 12:10 7.17808 79.88509 32 ft 2 kts 300°
2026-04-27 12:10 7.17798 79.88523 32 ft 2 kts 309°
2026-04-27 12:11 7.17792 79.88531 31 ft 1 kts 308°
2026-04-27 12:11 7.17791 79.88532 32 ft 0 kts 308°
2026-04-27 12:13 7.17792 79.88531 31 ft 1 kts 308°
2026-04-27 12:13 7.17807 79.88512 33 ft 6 kts 308°
2026-04-27 12:13 7.17840 79.88471 35 ft 9 kts 310°
2026-04-27 12:13 7.17899 79.88458 35 ft 10 kts 20°
2026-04-27 12:14 7.17964 79.88500 35 ft 12 kts 36°
2026-04-27 12:14 7.18041 79.88557 35 ft 15 kts 36°
2026-04-27 12:14 7.18131 79.88624 35 ft 17 kts 36°
2026-04-27 12:14 7.18232 79.88700 35 ft 19 kts 39°
2026-04-27 12:15 7.18341 79.88784 35 ft 21 kts 37°
2026-04-27 12:15 7.18457 79.88873 34 ft 22 kts 37°
2026-04-27 12:15 7.18585 79.88970 36 ft 23 kts 37°
2026-04-27 12:15 7.18717 79.89072 36 ft 25 kts 38°
2026-04-27 12:16 7.18856 79.89179 35 ft 26 kts 37°
2026-04-27 12:16 7.19002 79.89291 35 ft 27 kts 36°
2026-04-27 12:16 7.19133 79.89389 35 ft 19 kts 37°
2026-04-27 12:16 7.19212 79.89417 34 ft 5 kts 321°
2026-04-27 12:17 7.19228 79.89398 35 ft 0 kts 314°
2026-04-27 12:17 7.19256 79.89367 35 ft 13 kts 310°
2026-04-27 12:17 7.19280 79.89281 35 ft 13 kts 239°
2026-04-27 12:18 7.19253 79.89252 35 ft 2 kts 218°
2026-04-27 12:18 7.19218 79.89224 36 ft 21 kts 218°
2026-04-27 12:18 7.18910 79.88992 37 ft 89 kts 217°
2026-04-27 12:18 7.18261 79.88499 34 ft 142 kts 217°
2026-04-27 12:19 7.17677 79.88049 53 ft 168 kts 216°
2026-04-27 12:19 7.16762 79.87332 616 ft 165 kts 217°
2026-04-27 12:19 7.15873 79.86597 1213 ft 165 kts 219°
2026-04-27 12:19 7.14995 79.85859 1819 ft 167 kts 219°
2026-04-27 12:20 7.14073 79.85067 2246 ft 181 kts 220°
2026-04-27 12:20 7.13050 79.84225 2647 ft 200 kts 216°
2026-04-27 12:20 7.11845 79.83377 3052 ft 221 kts 214°
2026-04-27 12:20 7.10513 79.82446 3423 ft 245 kts 215°
2026-04-27 12:21 7.09065 79.81391 3900 ft 267 kts 216°
2026-04-27 12:21 7.07546 79.80248 4650 ft 276 kts 216°
2026-04-27 12:21 7.06006 79.79070 5470 ft 281 kts 217°
2026-04-27 12:21 7.04439 79.77868 6310 ft 285 kts 217°
2026-04-27 12:22 7.02851 79.76647 7107 ft 289 kts 217°
2026-04-27 12:22 7.01245 79.75413 7918 ft 292 kts 216°
2026-04-27 12:22 6.99619 79.74163 8709 ft 296 kts 216°
2026-04-27 12:22 6.97969 79.72897 9510 ft 300 kts 216°
2026-04-27 12:23 6.96295 79.71612 10220 ft 305 kts 216°
2026-04-27 12:23 6.94691 79.70161 10515 ft 327 kts 229°
2026-04-27 12:23 6.93250 79.68285 10723 ft 349 kts 233°
2026-04-27 12:23 6.91811 79.66260 11179 ft 359 kts 234°
2026-04-27 12:24 6.90354 79.64206 11880 ft 363 kts 233°
2026-04-27 12:24 6.88860 79.62135 12550 ft 367 kts 233°
2026-04-27 12:24 6.87338 79.60056 13220 ft 371 kts 233°
2026-04-27 12:24 6.85789 79.57958 13834 ft 376 kts 233°
2026-04-27 12:25 6.84221 79.55843 14444 ft 379 kts 232°
2026-04-27 12:25 6.82639 79.53711 15035 ft 382 kts 232°
2026-04-27 12:25 6.81040 79.51557 15627 ft 385 kts 232°
2026-04-27 12:25 6.79449 79.49413 16168 ft 389 kts 232°
2026-04-27 12:26 6.77821 79.47220 16757 ft 392 kts 232°
2026-04-27 12:26 6.76180 79.45008 17303 ft 395 kts 232°
2026-04-27 12:26 6.74527 79.42780 17855 ft 398 kts 232°
2026-04-27 12:26 6.72865 79.40542 18358 ft 402 kts 232°
2026-04-27 12:27 6.71188 79.38282 18824 ft 404 kts 232°
2026-04-27 12:27 6.69521 79.36039 19293 ft 407 kts 232°
2026-04-27 12:27 6.67793 79.33712 19765 ft 410 kts 232°
2026-04-27 12:27 6.66079 79.31404 20230 ft 413 kts 232°
2026-04-27 12:28 6.64350 79.29076 20690 ft 416 kts 232°
2026-04-27 12:28 6.62610 79.26734 21136 ft 419 kts 232°
2026-04-27 12:28 6.60852 79.24369 21617 ft 422 kts 232°
2026-04-27 12:28 6.59087 79.21993 22049 ft 426 kts 232°
2026-04-27 12:29 6.57307 79.19598 22495 ft 429 kts 232°
2026-04-27 12:29 6.55536 79.17216 22922 ft 432 kts 232°
2026-04-27 12:29 6.53735 79.14792 23355 ft 435 kts 233°
2026-04-27 12:29 6.51915 79.12344 23738 ft 437 kts 233°
2026-04-27 12:30 6.50088 79.09887 24130 ft 439 kts 232°
2026-04-27 12:30 6.48257 79.07423 24519 ft 441 kts 232°
2026-04-27 12:30 6.46420 79.04952 24905 ft 443 kts 232°
2026-04-27 12:30 6.44568 79.02462 25271 ft 445 kts 232°
2026-04-27 12:31 6.42710 78.99964 25627 ft 447 kts 232°
2026-04-27 12:31 6.40847 78.97459 25996 ft 448 kts 232°
2026-04-27 12:31 6.38976 78.94945 26341 ft 450 kts 232°
2026-04-27 12:31 6.37096 78.92418 26690 ft 452 kts 232°
2026-04-27 12:32 6.35207 78.89879 27033 ft 454 kts 232°
2026-04-27 12:32 6.33311 78.87332 27360 ft 455 kts 232°
2026-04-27 12:32 6.31410 78.84778 27682 ft 457 kts 232°
2026-04-27 12:32 6.29504 78.82218 28010 ft 458 kts 232°
2026-04-27 12:33 6.27592 78.79649 28325 ft 460 kts 232°
2026-04-27 12:33 6.25671 78.77070 28641 ft 461 kts 232°
2026-04-27 12:33 6.23747 78.74487 28940 ft 463 kts 232°
2026-04-27 12:33 6.21814 78.71892 29230 ft 464 kts 232°
2026-04-27 12:34 6.19875 78.69288 29538 ft 466 kts 232°
2026-04-27 12:34 6.17927 78.66675 29830 ft 467 kts 232°
2026-04-27 12:34 6.15980 78.64063 30077 ft 469 kts 232°
2026-04-27 12:34 6.14044 78.61465 30311 ft 471 kts 232°
2026-04-27 12:35 6.12054 78.58795 30556 ft 472 kts 232°
2026-04-27 12:35 6.10104 78.56179 30802 ft 474 kts 232°
2026-04-27 12:35 6.08124 78.53524 31079 ft 475 kts 232°
2026-04-27 12:35 6.06149 78.50874 31414 ft 474 kts 232°
2026-04-27 12:36 6.04171 78.48223 31740 ft 473 kts 232°
2026-04-27 12:36 6.02200 78.45580 32077 ft 472 kts 232°
2026-04-27 12:36 6.00231 78.42941 32412 ft 471 kts 232°
2026-04-27 12:36 5.98265 78.40305 32738 ft 470 kts 232°
2026-04-27 12:37 5.96308 78.37682 33054 ft 469 kts 232°
2026-04-27 12:37 5.94350 78.35059 33362 ft 468 kts 232°
2026-04-27 12:37 5.92400 78.32446 33685 ft 467 kts 232°
2026-04-27 12:37 5.90449 78.29833 33958 ft 466 kts 232°
2026-04-27 12:38 5.88509 78.27233 34193 ft 465 kts 232°
2026-04-27 12:38 5.86565 78.24630 34403 ft 465 kts 232°
2026-04-27 12:38 5.84622 78.22029 34620 ft 465 kts 232°
2026-04-27 12:38 5.82679 78.19429 34831 ft 465 kts 232°
2026-04-27 12:39 5.80737 78.16830 35039 ft 465 kts 232°
2026-04-27 12:39 5.78797 78.14233 35239 ft 465 kts 232°
2026-04-27 12:39 5.76853 78.11631 35454 ft 465 kts 231°
2026-04-27 12:39 5.74911 78.09037 35658 ft 465 kts 232°
2026-04-27 12:40 5.72973 78.06441 35866 ft 465 kts 232°
2026-04-27 12:40 5.71037 78.03843 36069 ft 465 kts 233°
2026-04-27 12:40 5.69276 78.01115 36263 ft 466 kts 239°
2026-04-27 12:40 5.67837 77.98246 36462 ft 467 kts 246°
2026-04-27 12:41 5.66690 77.95198 36657 ft 467 kts 252°
2026-04-27 12:41 5.65755 77.92066 36844 ft 467 kts 252°
2026-04-27 12:41 5.64813 77.88946 37042 ft 467 kts 252°
2026-04-27 12:41 5.63864 77.85829 37233 ft 467 kts 252°
2026-04-27 12:42 5.62912 77.82709 37424 ft 466 kts 252°
2026-04-27 12:42 5.61965 77.79600 37607 ft 466 kts 252°
2026-04-27 12:42 5.61017 77.76492 37703 ft 468 kts 252°
2026-04-27 12:43 5.59102 77.70201 37782 ft 473 kts 252°
2026-04-27 12:43 5.57171 77.63858 37819 ft 475 kts 252°
2026-04-27 12:44 5.55240 77.57517 37821 ft 474 kts 252°
2026-04-27 12:44 5.53312 77.51192 37822 ft 474 kts 252°
2026-04-27 12:45 5.51394 77.44902 37822 ft 473 kts 252°
2026-04-27 12:45 5.49468 77.38585 37821 ft 473 kts 252°
2026-04-27 12:46 5.47540 77.32266 37819 ft 473 kts 252°
2026-04-27 12:46 5.45612 77.25951 37815 ft 473 kts 252°
2026-04-27 12:47 5.43682 77.19632 37819 ft 473 kts 252°
2026-04-27 12:47 5.41764 77.13354 37817 ft 473 kts 251°
2026-04-27 12:48 5.39832 77.07032 37818 ft 474 kts 251°
2026-04-27 12:48 5.37900 77.00713 37816 ft 474 kts 251°
2026-04-27 12:49 5.35963 76.94382 37815 ft 474 kts 251°
2026-04-27 12:49 5.34026 76.88051 37815 ft 475 kts 251°
2026-04-27 12:50 5.32086 76.81712 37816 ft 475 kts 251°
2026-04-27 12:50 5.30140 76.75358 37819 ft 476 kts 251°
2026-04-27 12:51 5.28192 76.68999 37819 ft 477 kts 251°
2026-04-27 12:51 5.26241 76.62634 37822 ft 477 kts 251°
2026-04-27 12:52 5.24278 76.56229 37825 ft 478 kts 251°
2026-04-27 12:52 5.22346 76.49930 37826 ft 478 kts 251°
2026-04-27 12:53 5.19387 76.40287 37832 ft 478 kts 251°
2026-04-27 12:53 5.17443 76.33961 37832 ft 478 kts 251°
2026-04-27 12:54 5.15484 76.27585 37828 ft 478 kts 251°
2026-04-27 12:54 5.13528 76.21213 37831 ft 478 kts 251°
2026-04-27 12:55 5.11572 76.14847 37828 ft 478 kts 251°
2026-04-27 12:55 5.09615 76.08483 37827 ft 477 kts 251°
2026-04-27 12:56 5.07655 76.02117 37831 ft 477 kts 250°
2026-04-27 12:56 5.05706 75.95809 37821 ft 466 kts 251°
2026-04-27 12:57 5.03827 75.89631 37825 ft 464 kts 251°
2026-04-27 12:57 5.01927 75.83426 37824 ft 465 kts 251°
2026-04-27 12:58 5.00019 75.77220 37823 ft 465 kts 251°
2026-04-27 12:58 4.98108 75.71010 37825 ft 470 kts 251°
2026-04-27 12:59 4.96010 75.64836 37826 ft 469 kts 244°
2026-04-27 12:59 4.92995 75.59074 37826 ft 467 kts 238°
2026-04-27 13:00 4.89754 75.53427 37827 ft 466 kts 238°
2026-04-27 13:00 4.86501 75.47746 37827 ft 473 kts 238°
2026-04-27 13:01 4.83225 75.42027 37828 ft 472 kts 238°
2026-04-27 13:01 4.79956 75.36305 37826 ft 472 kts 238°
2026-04-27 13:02 4.76704 75.30621 37831 ft 473 kts 238°
2026-04-27 13:02 4.73434 75.24898 37826 ft 472 kts 238°
2026-04-27 13:03 4.71805 75.22053 37655 ft 469 kts 238°
2026-04-27 13:03 4.70726 75.20170 37339 ft 468 kts 238°
2026-04-27 13:03 4.69107 75.17341 36721 ft 468 kts 238°
2026-04-27 13:03 4.67500 75.14533 36347 ft 460 kts 238°
2026-04-27 13:04 4.65911 75.11758 35782 ft 458 kts 238°
2026-04-27 13:04 4.64323 75.08987 35113 ft 458 kts 238°
2026-04-27 13:04 4.62734 75.06214 34420 ft 460 kts 238°
2026-04-27 13:04 4.61140 75.03435 33737 ft 461 kts 238°
2026-04-27 13:05 4.59540 75.00646 32952 ft 462 kts 238°
2026-04-27 13:05 4.57935 74.97848 32159 ft 464 kts 238°
2026-04-27 13:05 4.56321 74.95036 31359 ft 466 kts 238°
2026-04-27 13:05 4.54703 74.92217 30565 ft 468 kts 238°
2026-04-27 13:06 4.53076 74.89381 29857 ft 468 kts 238°
2026-04-27 13:06 4.51462 74.86567 29178 ft 464 kts 238°
2026-04-27 13:06 4.49857 74.83771 28539 ft 460 kts 239°
2026-04-27 13:06 4.48268 74.81002 27893 ft 457 kts 238°
2026-04-27 13:07 4.46684 74.78247 27264 ft 454 kts 239°
2026-04-27 13:07 4.45112 74.75508 26644 ft 451 kts 239°
2026-04-27 13:07 4.43552 74.72789 26042 ft 449 kts 239°
2026-04-27 13:07 4.42003 74.70089 25455 ft 446 kts 239°
2026-04-27 13:08 4.40457 74.67396 24871 ft 444 kts 240°
2026-04-27 13:08 4.38925 74.64728 24304 ft 441 kts 240°
2026-04-27 13:08 4.37398 74.62069 23759 ft 439 kts 240°
2026-04-27 13:08 4.35881 74.59427 23180 ft 436 kts 240°
2026-04-27 13:09 4.34371 74.56796 22611 ft 432 kts 240°
2026-04-27 13:09 4.32882 74.54201 22054 ft 428 kts 240°
2026-04-27 13:09 4.31423 74.51660 21503 ft 424 kts 240°
2026-04-27 13:09 4.29955 74.49104 20964 ft 421 kts 240°
2026-04-27 13:10 4.28503 74.46574 20417 ft 417 kts 240°
2026-04-27 13:10 4.27059 74.44061 19887 ft 414 kts 240°
2026-04-27 13:10 4.25629 74.41574 19370 ft 411 kts 240°
2026-04-27 13:10 4.24208 74.39098 18859 ft 408 kts 240°
2026-04-27 13:11 4.22801 74.36649 18358 ft 405 kts 240°
2026-04-27 13:11 4.21402 74.34213 17827 ft 402 kts 240°
2026-04-27 13:11 4.20016 74.31801 17285 ft 398 kts 240°
2026-04-27 13:11 4.18644 74.29412 16768 ft 394 kts 240°
2026-04-27 13:12 4.17283 74.27038 16246 ft 391 kts 240°
2026-04-27 13:12 4.15933 74.24685 15751 ft 387 kts 239°
2026-04-27 13:12 4.14599 74.22362 15260 ft 384 kts 239°
2026-04-27 13:12 4.13271 74.20052 14777 ft 380 kts 239°
2026-04-27 13:13 4.11957 74.17766 14308 ft 377 kts 239°
2026-04-27 13:13 4.10653 74.15498 13834 ft 374 kts 239°
2026-04-27 13:13 4.09356 74.13247 13334 ft 371 kts 239°
2026-04-27 13:13 4.08073 74.11019 12834 ft 368 kts 239°
2026-04-27 13:14 4.06804 74.08811 12331 ft 365 kts 240°
2026-04-27 13:14 4.05543 74.06615 11848 ft 361 kts 240°
2026-04-27 13:14 4.04292 74.04438 11371 ft 358 kts 240°
2026-04-27 13:14 4.03054 74.02285 10898 ft 355 kts 240°
2026-04-27 13:15 4.01826 74.00151 10454 ft 352 kts 240°
2026-04-27 13:15 4.00623 73.98061 10314 ft 339 kts 240°
2026-04-27 13:15 3.99486 73.96086 10199 ft 325 kts 240°
2026-04-27 13:15 3.98379 73.94162 10087 ft 313 kts 240°
2026-04-27 13:16 3.97312 73.92308 9897 ft 304 kts 240°
2026-04-27 13:16 3.96260 73.90482 9519 ft 301 kts 240°
2026-04-27 13:16 3.95323 73.88622 9073 ft 297 kts 251°
2026-04-27 13:16 3.94897 73.86612 8497 ft 294 kts 268°
2026-04-27 13:17 3.94908 73.84569 8108 ft 292 kts 272°
2026-04-27 13:17 3.94926 73.82540 7753 ft 290 kts 271°
2026-04-27 13:17 3.94929 73.80548 7405 ft 288 kts 271°
2026-04-27 13:17 3.94926 73.78550 7056 ft 286 kts 270°
2026-04-27 13:18 3.94915 73.76566 6708 ft 284 kts 271°
2026-04-27 13:18 3.94914 73.74587 6341 ft 283 kts 271°
2026-04-27 13:18 3.94917 73.72661 6235 ft 271 kts 271°
2026-04-27 13:18 3.94918 73.70816 6133 ft 259 kts 270°
2026-04-27 13:19 3.94913 73.69049 6035 ft 247 kts 271°
2026-04-27 13:19 3.94914 73.67381 5933 ft 237 kts 271°
2026-04-27 13:19 3.94914 73.65746 5685 ft 234 kts 270°
2026-04-27 13:19 3.94911 73.64115 5401 ft 233 kts 271°
2026-04-27 13:20 3.94912 73.62493 5134 ft 232 kts 271°
2026-04-27 13:20 3.94914 73.60884 4855 ft 231 kts 270°
2026-04-27 13:20 3.94913 73.59279 4586 ft 229 kts 270°
2026-04-27 13:20 3.94912 73.57686 4318 ft 228 kts 270°
2026-04-27 13:21 3.94910 73.56105 4101 ft 224 kts 271°
2026-04-27 13:21 3.95227 73.54599 3998 ft 227 kts 302°
2026-04-27 13:21 3.96395 73.53574 3913 ft 227 kts 336°
2026-04-27 13:21 3.97922 73.53176 3753 ft 228 kts 353°
2026-04-27 13:22 3.99501 73.53093 3509 ft 226 kts 359°
2026-04-27 13:22 4.01076 73.53103 3247 ft 225 kts 359°
2026-04-27 13:22 4.02640 73.53101 2975 ft 224 kts 359°
2026-04-27 13:22 4.04182 73.53101 2697 ft 224 kts 359°
2026-04-27 13:23 4.05753 73.53102 2408 ft 223 kts 359°
2026-04-27 13:23 4.07288 73.53101 2111 ft 215 kts 359°
2026-04-27 13:23 4.08735 73.53102 1843 ft 202 kts 358°
2026-04-27 13:23 4.10081 73.53101 1634 ft 187 kts 358°
2026-04-27 13:24 4.11330 73.53101 1370 ft 172 kts 358°
2026-04-27 13:24 4.12462 73.53101 1171 ft 154 kts 358°
2026-04-27 13:24 4.13473 73.53102 961 ft 138 kts 357°
2026-04-27 13:24 4.14437 73.53100 804 ft 142 kts 358°
2026-04-27 13:25 4.15430 73.53100 634 ft 141 kts 358°
2026-04-27 13:25 4.16415 73.53121 514 ft 140 kts 359°
2026-04-27 13:25 4.17397 73.53127 310 ft 141 kts 356°
2026-04-27 13:25 4.18374 73.53113 85 ft 141 kts 357°
2026-04-27 13:26 4.19319 73.53105 17 ft 126 kts 358°
2026-04-27 13:26 4.19998 73.53104 13 ft 68 kts 358°
2026-04-27 13:26 4.20283 73.53104 14 ft 27 kts 360°
2026-04-27 13:26 4.20364 73.53070 16 ft 9 kts 300°
2026-04-27 13:27 4.20369 73.53000 15 ft 12 kts 270°
2026-04-27 13:27 4.20367 73.52954 15 ft 0 kts 260°
2026-04-27 13:27 4.20366 73.52947 15 ft 3 kts 260°
2026-04-27 13:28 4.20355 73.52913 16 ft 6 kts 237°
2026-04-27 13:28 4.20309 73.52896 14 ft 8 kts 177°
2026-04-27 13:28 4.20241 73.52897 14 ft 11 kts 180°
2026-04-27 13:28 4.20152 73.52899 17 ft 14 kts 177°
2026-04-27 13:29 4.20046 73.52900 14 ft 17 kts 180°
2026-04-27 13:29 4.19922 73.52901 14 ft 19 kts 180°
2026-04-27 13:29 4.19796 73.52903 14 ft 19 kts 178°
2026-04-27 13:29 4.19658 73.52906 14 ft 21 kts 179°
2026-04-27 13:30 4.19508 73.52909 14 ft 22 kts 179°
2026-04-27 13:30 4.19347 73.52911 15 ft 24 kts 179°
2026-04-27 13:30 4.19176 73.52914 15 ft 25 kts 179°
2026-04-27 13:30 4.19013 73.52915 15 ft 24 kts 180°
2026-04-27 13:31 4.18843 73.52919 15 ft 23 kts 178°
2026-04-27 13:31 4.18724 73.52923 15 ft 11 kts 179°
2026-04-27 13:31 4.18684 73.52908 16 ft 4 kts 235°
2026-04-27 13:31 4.18671 73.52875 15 ft 5 kts 260°
2026-04-27 13:32 4.18677 73.52859 15 ft 6 kts 295°
2026-04-27 13:32 4.18686 73.52854 15 ft 2 kts 345°
2026-04-27 13:32 4.18719 73.52853 15 ft 7 kts 358°
2026-04-27 13:32 4.18780 73.52852 15 ft 11 kts 359°
2026-04-27 13:33 4.18864 73.52851 15 ft 14 kts 359°
2026-04-27 13:33 4.18963 73.52850 15 ft 13 kts 360°
2026-04-27 13:33 4.19001 73.52850 15 ft 0 kts 359°
2026-04-27 13:34 4.19019 73.52847 15 ft 1 kts 332°
2026-04-27 13:34 4.19017 73.52841 15 ft 1 kts 269°
2026-04-27 13:34 4.19017 73.52830 15 ft 4 kts 269°
2026-04-27 13:34 4.19018 73.52790 15 ft 6 kts 270°
2026-04-27 13:35 4.19017 73.52780 15 ft 2 kts 268°
2026-04-27 13:35 4.19017 73.52775 15 ft 0 kts 267°